Year,Month,Day,Hour,Minute,Value (Times are PST for temperature in C)
2015,03,31,00,00,11.40
2015,03,31,00,01,11.40
2015,03,31,00,02,11.40
2015,03,31,00,03,11.40
2015,03,31,00,04,11.40
2015,03,31,00,05,11.40
2015,03,31,00,06,11.40
2015,03,31,00,07,11.40
2015,03,31,00,08,11.40
2015,03,31,00,09,11.40
2015,03,31,00,10,11.30
2015,03,31,00,11,11.30
2015,03,31,00,12,11.20
2015,03,31,00,13,11.20
2015,03,31,00,14,11.10
2015,03,31,00,15,11.00
2015,03,31,00,16,10.90
2015,03,31,00,17,10.80
2015,03,31,00,18,10.80
2015,03,31,00,19,10.70
2015,03,31,00,20,10.70
2015,03,31,00,21,10.60
2015,03,31,00,22,10.60
2015,03,31,00,23,10.50
2015,03,31,00,24,10.40
2015,03,31,00,25,10.40
2015,03,31,00,26,10.30
2015,03,31,00,27,10.30
2015,03,31,00,28,10.30
2015,03,31,00,29,10.20
2015,03,31,00,30,10.20
2015,03,31,00,31,10.10
2015,03,31,00,32,10.10
2015,03,31,00,33,10.00
2015,03,31,00,34,10.00
2015,03,31,00,35,10.00
2015,03,31,00,36,9.90
2015,03,31,00,37,9.90
2015,03,31,00,38,9.90
2015,03,31,00,39,9.90
2015,03,31,00,40,9.90
2015,03,31,00,41,9.90
2015,03,31,00,42,9.90
2015,03,31,00,43,9.90
2015,03,31,00,44,9.90
2015,03,31,00,45,9.90
2015,03,31,00,46,9.90
2015,03,31,00,47,9.90
2015,03,31,00,48,9.80
2015,03,31,00,49,9.80
2015,03,31,00,50,9.70
2015,03,31,00,51,9.70
2015,03,31,00,52,9.70
2015,03,31,00,53,9.60
2015,03,31,00,54,9.50
2015,03,31,00,55,9.40
2015,03,31,00,56,9.40
2015,03,31,00,57,9.30
2015,03,31,00,58,9.30
2015,03,31,00,59,9.30
2015,03,31,01,00,9.30
2015,03,31,01,01,9.20
2015,03,31,01,02,9.30
2015,03,31,01,03,9.30
2015,03,31,01,04,9.30
2015,03,31,01,05,9.30
2015,03,31,01,06,9.30
2015,03,31,01,07,9.40
2015,03,31,01,08,9.40
2015,03,31,01,09,9.40
2015,03,31,01,10,9.40
2015,03,31,01,11,9.40
2015,03,31,01,12,9.40
2015,03,31,01,13,9.30
2015,03,31,01,14,9.30
2015,03,31,01,15,9.30
2015,03,31,01,16,9.30
2015,03,31,01,17,9.30
2015,03,31,01,18,9.30
2015,03,31,01,19,9.30
2015,03,31,01,20,9.30
2015,03,31,01,21,9.30
2015,03,31,01,22,9.30
2015,03,31,01,23,9.40
2015,03,31,01,24,9.40
2015,03,31,01,25,9.40
2015,03,31,01,26,9.40
2015,03,31,01,27,9.40
2015,03,31,01,28,9.40
2015,03,31,01,29,9.50
2015,03,31,01,30,9.50
2015,03,31,01,31,9.50
2015,03,31,01,32,9.60
2015,03,31,01,33,9.60
2015,03,31,01,34,9.60
2015,03,31,01,35,9.50
2015,03,31,01,36,9.60
2015,03,31,01,37,9.60
2015,03,31,01,38,9.60
2015,03,31,01,39,9.60
2015,03,31,01,40,9.60
2015,03,31,01,41,9.50
2015,03,31,01,42,9.60
2015,03,31,01,43,9.50
2015,03,31,01,44,9.50
2015,03,31,01,45,9.50
2015,03,31,01,46,9.40
2015,03,31,01,47,9.40
2015,03,31,01,48,9.40
2015,03,31,01,49,9.30
2015,03,31,01,50,9.30
2015,03,31,01,51,9.30
2015,03,31,01,52,9.20
2015,03,31,01,53,9.20
2015,03,31,01,54,9.20
2015,03,31,01,55,9.10
2015,03,31,01,56,9.10
2015,03,31,01,57,9.00
2015,03,31,01,58,9.00
2015,03,31,01,59,8.90
2015,03,31,02,00,8.90
2015,03,31,02,01,8.80
2015,03,31,02,02,8.80
2015,03,31,02,03,8.80
2015,03,31,02,04,8.80
2015,03,31,02,05,8.80
2015,03,31,02,06,8.80
2015,03,31,02,07,8.70
2015,03,31,02,08,8.70
2015,03,31,02,09,8.70
2015,03,31,02,10,8.70
2015,03,31,02,11,8.70
2015,03,31,02,12,8.70
2015,03,31,02,13,8.70
2015,03,31,02,14,8.70
2015,03,31,02,15,8.70
2015,03,31,02,16,8.70
2015,03,31,02,17,8.60
2015,03,31,02,18,8.60
2015,03,31,02,19,8.60
2015,03,31,02,20,8.60
2015,03,31,02,21,8.60
2015,03,31,02,22,8.60
2015,03,31,02,23,8.70
2015,03,31,02,24,8.70
2015,03,31,02,25,8.70
2015,03,31,02,26,8.70
2015,03,31,02,27,8.70
2015,03,31,02,28,8.70
2015,03,31,02,29,8.70
2015,03,31,02,30,8.70
2015,03,31,02,31,8.70
2015,03,31,02,32,8.70
2015,03,31,02,33,8.70
2015,03,31,02,34,8.70
2015,03,31,02,35,8.70
2015,03,31,02,36,8.70
2015,03,31,02,37,8.70
2015,03,31,02,38,8.70
2015,03,31,02,39,8.70
2015,03,31,02,40,8.70
2015,03,31,02,41,8.70
2015,03,31,02,42,8.70
2015,03,31,02,43,8.60
2015,03,31,02,44,8.60
2015,03,31,02,45,8.60
2015,03,31,02,46,8.60
2015,03,31,02,47,8.60
2015,03,31,02,48,8.60
2015,03,31,02,49,8.60
2015,03,31,02,50,8.60
2015,03,31,02,51,8.60
2015,03,31,02,52,8.60
2015,03,31,02,53,8.60
2015,03,31,02,54,8.60
2015,03,31,02,55,8.60
2015,03,31,02,56,8.60
2015,03,31,02,57,8.60
2015,03,31,02,58,8.60
2015,03,31,02,59,8.60
2015,03,31,03,00,8.50
2015,03,31,03,01,8.50
2015,03,31,03,02,8.50
2015,03,31,03,03,8.60
2015,03,31,03,06,8.60
2015,03,31,03,07,8.60
2015,03,31,03,08,8.70
2015,03,31,03,09,8.70
2015,03,31,03,10,8.70
2015,03,31,03,11,8.70
2015,03,31,03,12,8.70
2015,03,31,03,13,8.70
2015,03,31,03,14,8.70
2015,03,31,03,15,8.70
2015,03,31,03,16,8.70
2015,03,31,03,17,8.70
2015,03,31,03,18,8.70
2015,03,31,03,19,8.70
2015,03,31,03,20,8.70
2015,03,31,03,21,8.70
2015,03,31,03,22,8.70
2015,03,31,03,23,8.70
2015,03,31,03,24,8.70
2015,03,31,03,25,8.70
2015,03,31,03,26,8.70
2015,03,31,03,27,8.70
2015,03,31,03,28,8.70
2015,03,31,03,29,8.70
2015,03,31,03,30,8.70
2015,03,31,03,31,8.70
2015,03,31,03,32,8.70
2015,03,31,03,33,8.70
2015,03,31,03,34,8.80
2015,03,31,03,35,8.80
2015,03,31,03,36,8.80
2015,03,31,03,37,8.80
2015,03,31,03,38,8.80
2015,03,31,03,39,8.80
2015,03,31,03,40,8.80
2015,03,31,03,41,8.80
2015,03,31,03,42,8.70
2015,03,31,03,43,8.70
2015,03,31,03,44,8.70
2015,03,31,03,45,8.70
2015,03,31,03,46,8.70
2015,03,31,03,47,8.70
2015,03,31,03,48,8.70
2015,03,31,03,49,8.60
2015,03,31,03,50,8.60
2015,03,31,03,51,8.60
2015,03,31,03,52,8.60
2015,03,31,03,53,8.60
2015,03,31,03,54,8.60
2015,03,31,03,55,8.60
2015,03,31,03,56,8.50
2015,03,31,03,57,8.50
2015,03,31,03,58,8.50
2015,03,31,03,59,8.50
2015,03,31,04,00,8.40
2015,03,31,04,01,8.40
2015,03,31,04,02,8.40
2015,03,31,04,03,8.40
2015,03,31,04,04,8.30
2015,03,31,04,05,8.30
2015,03,31,04,06,8.30
2015,03,31,04,07,8.30
2015,03,31,04,08,8.30
2015,03,31,04,09,8.30
2015,03,31,04,10,8.30
2015,03,31,04,11,8.30
2015,03,31,04,12,8.30
2015,03,31,04,13,8.20
2015,03,31,04,14,8.20
2015,03,31,04,15,8.20
2015,03,31,04,16,8.20
2015,03,31,04,17,8.20
2015,03,31,04,18,8.20
2015,03,31,04,19,8.10
2015,03,31,04,20,8.10
2015,03,31,04,21,8.10
2015,03,31,04,22,8.10
2015,03,31,04,23,8.10
2015,03,31,04,24,8.10
2015,03,31,04,25,8.10
2015,03,31,04,26,8.00
2015,03,31,04,27,8.00
2015,03,31,04,28,8.00
2015,03,31,04,29,8.00
2015,03,31,04,30,8.00
2015,03,31,04,31,8.00
2015,03,31,04,32,8.00
2015,03,31,04,33,8.00
2015,03,31,04,34,8.00
2015,03,31,04,35,8.00
2015,03,31,04,36,8.00
2015,03,31,04,37,8.00
2015,03,31,04,38,8.00
2015,03,31,04,39,8.00
2015,03,31,04,40,8.00
2015,03,31,04,41,7.90
2015,03,31,04,42,7.90
2015,03,31,04,43,7.90
2015,03,31,04,44,7.90
2015,03,31,04,45,7.90
2015,03,31,04,46,7.80
2015,03,31,04,47,7.80
2015,03,31,04,48,7.80
2015,03,31,04,49,7.80
2015,03,31,04,50,7.80
2015,03,31,04,51,7.80
2015,03,31,04,52,7.80
2015,03,31,04,53,7.70
2015,03,31,04,54,7.70
2015,03,31,04,55,7.70
2015,03,31,04,56,7.70
2015,03,31,04,57,7.70
2015,03,31,04,58,7.70
2015,03,31,04,59,7.70
2015,03,31,05,00,7.60
2015,03,31,05,01,7.60
2015,03,31,05,02,7.60
2015,03,31,05,03,7.60
2015,03,31,05,04,7.60
2015,03,31,05,05,7.60
2015,03,31,05,06,7.60
2015,03,31,05,07,7.50
2015,03,31,05,08,7.50
2015,03,31,05,09,7.40
2015,03,31,05,10,7.40
2015,03,31,05,11,7.40
2015,03,31,05,12,7.30
2015,03,31,05,13,7.20
2015,03,31,05,14,7.20
2015,03,31,05,15,7.10
2015,03,31,05,16,7.10
2015,03,31,05,17,7.10
2015,03,31,05,18,7.10
2015,03,31,05,19,7.10
2015,03,31,05,20,7.10
2015,03,31,05,21,7.10
2015,03,31,05,22,7.20
2015,03,31,05,23,7.10
2015,03,31,05,24,7.00
2015,03,31,05,25,7.00
2015,03,31,05,26,6.90
2015,03,31,05,27,6.80
2015,03,31,05,28,6.80
2015,03,31,05,29,6.80
2015,03,31,05,30,6.80
2015,03,31,05,31,6.70
2015,03,31,05,32,6.70
2015,03,31,05,33,6.70
2015,03,31,05,34,6.60
2015,03,31,05,35,6.60
2015,03,31,05,36,6.60
2015,03,31,05,37,6.60
2015,03,31,05,38,6.60
2015,03,31,05,39,6.50
2015,03,31,05,40,6.50
2015,03,31,05,41,6.40
2015,03,31,05,42,6.40
2015,03,31,05,43,6.40
2015,03,31,05,44,6.40
2015,03,31,05,45,6.40
2015,03,31,05,46,6.40
2015,03,31,05,47,6.40
2015,03,31,05,48,6.50
2015,03,31,05,49,6.50
2015,03,31,05,50,6.50
2015,03,31,05,51,6.50
2015,03,31,05,52,6.50
2015,03,31,05,53,6.40
2015,03,31,05,54,6.40
2015,03,31,05,55,6.40
2015,03,31,05,56,6.30
2015,03,31,05,57,6.30
2015,03,31,05,58,6.30
2015,03,31,05,59,6.30
2015,03,31,06,00,6.20
2015,03,31,06,01,6.20
2015,03,31,06,02,6.20
2015,03,31,06,03,6.20
2015,03,31,06,04,6.20
2015,03,31,06,05,6.20
2015,03,31,06,06,6.10
2015,03,31,06,07,6.10
2015,03,31,06,08,6.10
2015,03,31,06,09,6.10
2015,03,31,06,10,6.10
2015,03,31,06,11,6.00
2015,03,31,06,12,6.00
2015,03,31,06,13,6.00
2015,03,31,06,14,5.90
2015,03,31,06,15,5.90
2015,03,31,06,16,5.90
2015,03,31,06,17,5.90
2015,03,31,06,18,5.90
2015,03,31,06,19,6.10
2015,03,31,06,20,6.20
2015,03,31,06,21,6.30
2015,03,31,06,22,6.30
2015,03,31,06,23,6.30
2015,03,31,06,24,6.30
2015,03,31,06,25,6.20
2015,03,31,06,26,6.20
2015,03,31,06,27,6.20
2015,03,31,06,28,6.20
2015,03,31,06,29,6.20
2015,03,31,06,30,6.10
2015,03,31,06,31,6.10
2015,03,31,06,32,6.10
2015,03,31,06,33,6.00
2015,03,31,06,34,5.90
2015,03,31,06,35,5.90
2015,03,31,06,36,5.90
2015,03,31,06,37,5.80
2015,03,31,06,38,5.80
2015,03,31,06,39,5.80
2015,03,31,06,40,5.80
2015,03,31,06,41,5.80
2015,03,31,06,42,5.80
2015,03,31,06,43,5.80
2015,03,31,06,44,5.80
2015,03,31,06,45,5.80
2015,03,31,06,46,5.80
2015,03,31,06,47,5.80
2015,03,31,06,48,5.80
2015,03,31,06,49,5.70
2015,03,31,06,50,5.70
2015,03,31,06,51,5.70
2015,03,31,06,52,5.70
2015,03,31,06,53,5.70
2015,03,31,06,54,5.60
2015,03,31,06,55,5.60
2015,03,31,06,56,5.60
2015,03,31,06,57,5.60
2015,03,31,06,58,5.60
2015,03,31,06,59,5.60
2015,03,31,07,00,5.70
2015,03,31,07,01,5.80
2015,03,31,07,02,5.80
2015,03,31,07,03,5.80
2015,03,31,07,04,5.80
2015,03,31,07,05,5.80
2015,03,31,07,06,5.70
2015,03,31,07,07,5.70
2015,03,31,07,08,5.70
2015,03,31,07,09,5.60
2015,03,31,07,10,5.60
2015,03,31,07,11,5.60
2015,03,31,07,12,5.60
2015,03,31,07,13,5.60
2015,03,31,07,14,5.60
2015,03,31,07,15,5.60
2015,03,31,07,16,5.60
2015,03,31,07,17,5.60
2015,03,31,07,18,5.60
2015,03,31,07,19,5.60
2015,03,31,07,20,5.60
2015,03,31,07,21,5.50
2015,03,31,07,22,5.60
2015,03,31,07,23,5.60
2015,03,31,07,24,5.60
2015,03,31,07,25,5.60
2015,03,31,07,26,5.60
2015,03,31,07,27,5.70
2015,03,31,07,28,5.70
2015,03,31,07,29,5.70
2015,03,31,07,30,5.70
2015,03,31,07,31,5.70
2015,03,31,07,32,5.70
2015,03,31,07,33,5.70
2015,03,31,07,34,5.70
2015,03,31,07,35,5.70
2015,03,31,07,36,5.70
2015,03,31,07,37,5.70
2015,03,31,07,38,5.70
2015,03,31,07,39,5.70
2015,03,31,07,40,5.70
2015,03,31,07,41,5.70
2015,03,31,07,42,5.70
2015,03,31,07,43,5.70
2015,03,31,07,44,5.80
2015,03,31,07,45,5.80
2015,03,31,07,46,5.90
2015,03,31,07,47,6.00
2015,03,31,07,48,6.20
2015,03,31,07,49,6.30
2015,03,31,07,50,6.50
2015,03,31,07,51,6.70
2015,03,31,07,52,6.90
2015,03,31,07,53,7.00
2015,03,31,07,54,7.10
2015,03,31,07,55,7.30
2015,03,31,07,56,7.40
2015,03,31,07,57,7.50
2015,03,31,07,58,7.60
2015,03,31,07,59,7.60
2015,03,31,08,00,7.70
2015,03,31,08,01,7.70
2015,03,31,08,02,7.70
2015,03,31,08,03,7.70
2015,03,31,08,04,7.70
2015,03,31,08,05,7.70
2015,03,31,08,06,7.60
2015,03,31,08,07,7.60
2015,03,31,08,08,7.60
2015,03,31,08,09,7.60
2015,03,31,08,10,7.70
2015,03,31,08,11,7.70
2015,03,31,08,12,7.80
2015,03,31,08,13,7.80
2015,03,31,08,14,7.80
2015,03,31,08,15,7.90
2015,03,31,08,16,7.90
2015,03,31,08,17,7.90
2015,03,31,08,18,7.90
2015,03,31,08,19,7.90
2015,03,31,08,20,7.80
2015,03,31,08,21,7.80
2015,03,31,08,22,7.80
2015,03,31,08,23,7.80
2015,03,31,08,24,7.80
2015,03,31,08,25,7.90
2015,03,31,08,26,7.90
2015,03,31,08,27,7.90
2015,03,31,08,28,7.90
2015,03,31,08,29,7.90
2015,03,31,08,30,7.90
2015,03,31,08,31,7.80
2015,03,31,08,32,7.80
2015,03,31,08,33,7.80
2015,03,31,08,34,7.80
2015,03,31,08,35,7.80
2015,03,31,08,36,7.80
2015,03,31,08,37,7.80
2015,03,31,08,38,7.80
2015,03,31,08,39,7.80
2015,03,31,08,40,7.80
2015,03,31,08,41,7.80
2015,03,31,08,42,7.80
2015,03,31,08,43,7.80
2015,03,31,08,44,7.90
2015,03,31,08,45,7.90
2015,03,31,08,46,8.00
2015,03,31,08,47,8.10
2015,03,31,08,48,8.20
2015,03,31,08,49,8.30
2015,03,31,08,50,8.40
2015,03,31,08,51,8.40
2015,03,31,08,52,8.50
2015,03,31,08,53,8.50
2015,03,31,08,54,8.40
2015,03,31,08,55,8.40
2015,03,31,08,56,8.30
2015,03,31,08,57,8.30
2015,03,31,08,58,8.30
2015,03,31,08,59,8.30
2015,03,31,09,00,8.30
2015,03,31,09,01,8.30
2015,03,31,09,02,8.30
2015,03,31,09,03,8.30
2015,03,31,09,04,8.30
2015,03,31,09,05,8.20
2015,03,31,09,06,8.30
2015,03,31,09,07,8.30
2015,03,31,09,08,8.30
2015,03,31,09,09,8.40
2015,03,31,09,10,8.50
2015,03,31,09,11,8.60
2015,03,31,09,12,8.70
2015,03,31,09,13,8.80
2015,03,31,09,14,8.80
2015,03,31,09,15,8.90
2015,03,31,09,16,9.00
2015,03,31,09,17,9.00
2015,03,31,09,18,9.20
2015,03,31,09,19,9.30
2015,03,31,09,20,9.40
2015,03,31,09,21,9.40
2015,03,31,09,22,9.50
2015,03,31,09,23,9.50
2015,03,31,09,24,9.60
2015,03,31,09,25,9.60
2015,03,31,09,26,9.50
2015,03,31,09,27,9.60
2015,03,31,09,28,9.60
2015,03,31,09,29,9.70
2015,03,31,09,30,9.70
2015,03,31,09,31,9.70
2015,03,31,09,32,9.70
2015,03,31,09,33,9.60
2015,03,31,09,34,9.60
2015,03,31,09,35,9.60
2015,03,31,09,36,9.60
2015,03,31,09,37,9.60
2015,03,31,09,38,9.60
2015,03,31,09,39,9.70
2015,03,31,09,40,9.70
2015,03,31,09,41,9.60
2015,03,31,09,42,9.60
2015,03,31,09,43,9.70
2015,03,31,09,44,9.70
2015,03,31,09,45,9.70
2015,03,31,09,46,9.70
2015,03,31,09,47,9.80
2015,03,31,09,48,9.80
2015,03,31,09,49,9.90
2015,03,31,09,50,9.90
2015,03,31,09,51,9.90
2015,03,31,09,52,10.00
2015,03,31,09,53,10.00
2015,03,31,09,54,10.00
2015,03,31,09,55,10.00
2015,03,31,09,56,10.00
2015,03,31,09,57,10.00
2015,03,31,09,58,10.00
2015,03,31,09,59,10.00
2015,03,31,10,00,10.00
2015,03,31,10,01,10.10
2015,03,31,10,02,10.10
2015,03,31,10,03,10.20
2015,03,31,10,04,10.20
2015,03,31,10,05,10.20
2015,03,31,10,06,10.20
2015,03,31,10,07,10.10
2015,03,31,10,08,10.10
2015,03,31,10,09,10.10
2015,03,31,10,10,10.10
2015,03,31,10,11,10.10
2015,03,31,10,12,10.10
2015,03,31,10,13,10.10
2015,03,31,10,14,10.20
2015,03,31,10,15,10.20
2015,03,31,10,16,10.30
2015,03,31,10,17,10.30
2015,03,31,10,18,10.40
2015,03,31,10,19,10.40
2015,03,31,10,20,10.40
2015,03,31,10,21,10.40
2015,03,31,10,22,10.40
2015,03,31,10,23,10.40
2015,03,31,10,24,10.50
2015,03,31,10,25,10.50
2015,03,31,10,26,10.50
2015,03,31,10,27,10.50
2015,03,31,10,28,10.40
2015,03,31,10,29,10.40
2015,03,31,10,30,10.40
2015,03,31,10,31,10.50
2015,03,31,10,32,10.60
2015,03,31,10,33,10.70
2015,03,31,10,34,10.70
2015,03,31,10,35,10.70
2015,03,31,10,36,10.70
2015,03,31,10,37,10.80
2015,03,31,10,38,10.80
2015,03,31,10,39,10.80
2015,03,31,10,40,10.90
2015,03,31,10,41,11.00
2015,03,31,10,42,11.00
2015,03,31,10,43,11.10
2015,03,31,10,44,11.00
2015,03,31,10,45,11.00
2015,03,31,10,46,11.00
2015,03,31,10,47,11.00
2015,03,31,10,48,11.00
2015,03,31,10,49,11.00
2015,03,31,10,50,11.00
2015,03,31,10,51,11.10
2015,03,31,10,52,11.10
2015,03,31,10,53,11.20
2015,03,31,10,54,11.30
2015,03,31,10,55,11.30
2015,03,31,10,56,11.30
2015,03,31,10,57,11.40
2015,03,31,10,58,11.40
2015,03,31,10,59,11.40
2015,03,31,11,00,11.40
2015,03,31,11,01,11.40
2015,03,31,11,02,11.40
2015,03,31,11,03,11.40
2015,03,31,11,04,11.30
2015,03,31,11,05,11.40
2015,03,31,11,06,11.40
2015,03,31,11,07,11.40
2015,03,31,11,08,11.40
2015,03,31,11,09,11.40
2015,03,31,11,10,11.50
2015,03,31,11,11,11.60
2015,03,31,11,12,11.80
2015,03,31,11,13,11.80
2015,03,31,11,14,11.90
2015,03,31,11,15,11.90
2015,03,31,11,16,11.90
2015,03,31,11,17,11.90
2015,03,31,11,18,12.00
2015,03,31,11,19,12.00
2015,03,31,11,20,12.00
2015,03,31,11,21,12.00
2015,03,31,11,22,12.00
2015,03,31,11,23,12.00
2015,03,31,11,24,11.90
2015,03,31,11,25,11.80
2015,03,31,11,26,11.80
2015,03,31,11,27,11.80
2015,03,31,11,28,11.80
2015,03,31,11,29,11.80
2015,03,31,11,30,11.80
2015,03,31,11,31,11.80
2015,03,31,11,32,11.80
2015,03,31,11,33,11.90
2015,03,31,11,34,12.00
2015,03,31,11,35,12.10
2015,03,31,11,36,12.20
2015,03,31,11,37,12.10
2015,03,31,11,38,12.00
2015,03,31,11,39,11.90
2015,03,31,11,40,11.90
2015,03,31,11,41,11.80
2015,03,31,11,42,11.80
2015,03,31,11,43,11.80
2015,03,31,11,44,11.80
2015,03,31,11,45,11.80
2015,03,31,11,46,11.90
2015,03,31,11,47,12.00
2015,03,31,11,48,12.10
2015,03,31,11,49,12.20
2015,03,31,11,50,12.20
2015,03,31,11,51,12.30
2015,03,31,11,52,12.40
2015,03,31,11,53,12.40
2015,03,31,11,54,12.50
2015,03,31,11,55,12.50
2015,03,31,11,56,12.50
2015,03,31,11,57,12.50
2015,03,31,11,58,12.50
2015,03,31,11,59,12.40
2015,03,31,12,00,12.50
2015,03,31,12,01,12.50
2015,03,31,12,02,12.60
2015,03,31,12,03,12.60
2015,03,31,12,04,12.70
2015,03,31,12,05,12.80
2015,03,31,12,06,12.80
2015,03,31,12,07,12.90
2015,03,31,12,08,12.90
2015,03,31,12,09,12.80
2015,03,31,12,10,12.70
2015,03,31,12,11,12.60
2015,03,31,12,12,12.60
2015,03,31,12,13,12.60
2015,03,31,12,14,12.70
2015,03,31,12,15,12.70
2015,03,31,12,16,12.60
2015,03,31,12,17,12.60
2015,03,31,12,18,12.60
2015,03,31,12,19,12.60
2015,03,31,12,20,12.70
2015,03,31,12,21,12.70
2015,03,31,12,22,12.70
2015,03,31,12,23,12.80
2015,03,31,12,24,12.80
2015,03,31,12,25,12.80
2015,03,31,12,26,12.80
2015,03,31,12,27,12.80
2015,03,31,12,28,12.90
2015,03,31,12,29,13.00
2015,03,31,12,30,13.00
2015,03,31,12,31,13.00
2015,03,31,12,32,13.00
2015,03,31,12,33,13.00
2015,03,31,12,34,12.90
2015,03,31,12,35,12.80
2015,03,31,12,36,12.80
2015,03,31,12,37,12.80
2015,03,31,12,38,12.80
2015,03,31,12,39,12.70
2015,03,31,12,40,12.70
2015,03,31,12,41,12.70
2015,03,31,12,42,12.80
2015,03,31,12,43,12.90
2015,03,31,12,44,13.00
2015,03,31,12,45,13.20
2015,03,31,12,46,13.20
2015,03,31,12,47,13.20
2015,03,31,12,48,13.30
2015,03,31,12,49,13.30
2015,03,31,12,50,13.30
2015,03,31,12,51,13.30
2015,03,31,12,52,13.20
2015,03,31,12,53,13.20
2015,03,31,12,54,13.10
2015,03,31,12,55,13.10
2015,03,31,12,56,13.10
2015,03,31,12,57,13.20
2015,03,31,12,58,13.30
2015,03,31,12,59,13.30
2015,03,31,13,00,13.30
2015,03,31,13,01,13.30
2015,03,31,13,02,13.20
2015,03,31,13,03,13.20
2015,03,31,13,04,13.20
2015,03,31,13,05,13.10
2015,03,31,13,06,13.20
2015,03,31,13,07,13.20
2015,03,31,13,08,13.20
2015,03,31,13,09,13.20
2015,03,31,13,10,13.20
2015,03,31,13,11,13.10
2015,03,31,13,12,13.10
2015,03,31,13,13,13.10
2015,03,31,13,14,13.10
2015,03,31,13,15,13.20
2015,03,31,13,16,13.30
2015,03,31,13,17,13.40
2015,03,31,13,18,13.40
2015,03,31,13,19,13.50
2015,03,31,13,20,13.60
2015,03,31,13,21,13.60
2015,03,31,13,22,13.70
2015,03,31,13,23,13.80
2015,03,31,13,24,13.80
2015,03,31,13,25,13.90
2015,03,31,13,26,14.00
2015,03,31,13,27,14.00
2015,03,31,13,28,14.00
2015,03,31,13,29,14.00
2015,03,31,13,30,13.90
2015,03,31,13,31,13.90
2015,03,31,13,32,13.90
2015,03,31,13,33,13.90
2015,03,31,13,34,13.90
2015,03,31,13,35,13.90
2015,03,31,13,36,13.80
2015,03,31,13,37,13.80
2015,03,31,13,38,13.80
2015,03,31,13,39,13.80
2015,03,31,13,40,13.80
2015,03,31,13,41,13.80
2015,03,31,13,42,13.70
2015,03,31,13,43,13.70
2015,03,31,13,44,13.60
2015,03,31,13,45,13.60
2015,03,31,13,46,13.60
2015,03,31,13,47,13.70
2015,03,31,13,48,13.70
2015,03,31,13,49,13.70
2015,03,31,13,50,13.70
2015,03,31,13,51,13.50
2015,03,31,13,52,13.40
2015,03,31,13,53,13.30
2015,03,31,13,54,13.10
2015,03,31,13,55,12.90
2015,03,31,13,56,12.70
2015,03,31,13,57,12.70
2015,03,31,13,58,12.80
2015,03,31,13,59,13.00
2015,03,31,14,00,13.00
2015,03,31,14,01,13.10
2015,03,31,14,02,13.20
2015,03,31,14,03,13.30
2015,03,31,14,04,13.20
2015,03,31,14,05,13.10
2015,03,31,14,06,13.00
2015,03,31,14,07,12.80
2015,03,31,14,08,12.90
2015,03,31,14,09,13.00
2015,03,31,14,10,13.20
2015,03,31,14,11,13.30
2015,03,31,14,12,13.40
2015,03,31,14,13,13.50
2015,03,31,14,14,13.60
2015,03,31,14,15,13.60
2015,03,31,14,16,13.60
2015,03,31,14,17,13.50
2015,03,31,14,18,13.40
2015,03,31,14,19,13.40
2015,03,31,14,20,13.50
2015,03,31,14,21,13.50
2015,03,31,14,22,13.40
2015,03,31,14,23,13.40
2015,03,31,14,24,13.40
2015,03,31,14,25,13.40
2015,03,31,14,26,13.40
2015,03,31,14,27,13.40
2015,03,31,14,28,13.30
2015,03,31,14,29,13.30
2015,03,31,14,30,13.20
2015,03,31,14,31,13.20
2015,03,31,14,32,13.30
2015,03,31,14,33,13.40
2015,03,31,14,34,13.40
2015,03,31,14,35,13.50
2015,03,31,14,36,13.50
2015,03,31,14,37,13.50
2015,03,31,14,38,13.40
2015,03,31,14,39,13.40
2015,03,31,14,40,13.50
2015,03,31,14,41,13.70
2015,03,31,14,42,13.80
2015,03,31,14,43,13.90
2015,03,31,14,44,13.90
2015,03,31,14,45,13.80
2015,03,31,14,46,13.60
2015,03,31,14,47,13.50
2015,03,31,14,48,13.40
2015,03,31,14,49,13.40
2015,03,31,14,50,13.40
2015,03,31,14,51,13.40
2015,03,31,14,52,13.40
2015,03,31,14,53,13.50
2015,03,31,14,54,13.50
2015,03,31,14,55,13.50
2015,03,31,14,56,13.50
2015,03,31,14,57,13.50
2015,03,31,14,58,13.40
2015,03,31,14,59,13.30
2015,03,31,15,00,13.20
2015,03,31,15,01,13.10
2015,03,31,15,02,13.10
2015,03,31,15,03,13.00
2015,03,31,15,04,12.90
2015,03,31,15,05,12.80
2015,03,31,15,06,12.60
2015,03,31,15,07,12.50
2015,03,31,15,08,12.40
2015,03,31,15,09,12.40
2015,03,31,15,10,12.30
2015,03,31,15,11,12.30
2015,03,31,15,12,12.30
2015,03,31,15,13,12.20
2015,03,31,15,14,12.20
2015,03,31,15,15,12.10
2015,03,31,15,16,12.10
2015,03,31,15,17,12.00
2015,03,31,15,18,12.00
2015,03,31,15,19,11.90
2015,03,31,15,20,11.90
2015,03,31,15,21,11.80
2015,03,31,15,22,11.80
2015,03,31,15,23,11.80
2015,03,31,15,24,11.70
2015,03,31,15,25,11.70
2015,03,31,15,26,11.70
2015,03,31,15,27,11.70
2015,03,31,15,28,11.70
2015,03,31,15,29,11.70
2015,03,31,15,30,11.70
2015,03,31,15,31,11.70
2015,03,31,15,32,11.80
2015,03,31,15,33,11.80
2015,03,31,15,34,11.90
2015,03,31,15,35,12.00
2015,03,31,15,36,12.10
2015,03,31,15,37,12.30
2015,03,31,15,38,12.40
2015,03,31,15,39,12.50
2015,03,31,15,40,12.60
2015,03,31,15,41,12.70
2015,03,31,15,42,12.80
2015,03,31,15,43,12.90
2015,03,31,15,44,12.90
2015,03,31,15,45,13.00
2015,03,31,15,46,13.10
2015,03,31,15,47,13.20
2015,03,31,15,48,13.20
2015,03,31,15,49,13.20
2015,03,31,15,50,13.20
2015,03,31,15,51,13.20
2015,03,31,15,52,13.10
2015,03,31,15,53,13.00
2015,03,31,15,54,12.80
2015,03,31,15,55,12.70
2015,03,31,15,56,12.50
2015,03,31,15,57,12.40
2015,03,31,15,58,12.30
2015,03,31,15,59,12.30
2015,03,31,16,00,12.20
2015,03,31,16,01,12.20
2015,03,31,16,02,12.10
2015,03,31,16,03,12.10
2015,03,31,16,04,12.10
2015,03,31,16,05,12.10
2015,03,31,16,06,12.10
2015,03,31,16,07,12.10
2015,03,31,16,08,12.10
2015,03,31,16,09,12.20
2015,03,31,16,10,12.30
2015,03,31,16,11,12.30
2015,03,31,16,12,12.30
2015,03,31,16,13,12.30
2015,03,31,16,14,12.30
2015,03,31,16,15,12.40
2015,03,31,16,16,12.50
2015,03,31,16,17,12.60
2015,03,31,16,18,12.70
2015,03,31,16,19,12.80
2015,03,31,16,20,12.90
2015,03,31,16,21,13.00
2015,03,31,16,22,13.00
2015,03,31,16,23,13.10
2015,03,31,16,24,13.10
2015,03,31,16,25,13.10
2015,03,31,16,26,13.00
2015,03,31,16,27,13.00
2015,03,31,16,28,12.90
2015,03,31,16,29,12.90
2015,03,31,16,30,12.70
2015,03,31,16,31,12.50
2015,03,31,16,32,12.30
2015,03,31,16,33,12.20
2015,03,31,16,34,12.10
2015,03,31,16,35,12.10
2015,03,31,16,36,12.00
2015,03,31,16,37,12.00
2015,03,31,16,38,12.00
2015,03,31,16,39,12.10
2015,03,31,16,40,12.10
2015,03,31,16,41,12.10
2015,03,31,16,42,12.10
2015,03,31,16,43,12.10
2015,03,31,16,44,12.00
2015,03,31,16,45,12.00
2015,03,31,16,46,12.00
2015,03,31,16,47,12.00
2015,03,31,16,48,12.00
2015,03,31,16,49,11.90
2015,03,31,16,50,11.90
2015,03,31,16,51,11.80
2015,03,31,16,52,11.70
2015,03,31,16,53,11.60
2015,03,31,16,54,11.50
2015,03,31,16,55,11.30
2015,03,31,16,56,11.20
2015,03,31,16,57,11.10
2015,03,31,16,58,11.00
2015,03,31,16,59,10.90
2015,03,31,17,00,10.90
2015,03,31,17,01,10.80
2015,03,31,17,02,10.70
2015,03,31,17,03,10.60
2015,03,31,17,04,10.60
2015,03,31,17,05,10.50
2015,03,31,17,06,10.40
2015,03,31,17,07,10.30
2015,03,31,17,08,10.30
2015,03,31,17,09,10.20
2015,03,31,17,10,10.10
2015,03,31,17,11,10.10
2015,03,31,17,12,10.00
2015,03,31,17,13,10.00
2015,03,31,17,14,9.90
2015,03,31,17,15,9.90
2015,03,31,17,16,9.90
2015,03,31,17,17,9.80
2015,03,31,17,18,9.80
2015,03,31,17,19,9.80
2015,03,31,17,20,9.80
2015,03,31,17,21,9.70
2015,03,31,17,22,9.70
2015,03,31,17,23,9.70
2015,03,31,17,24,9.60
2015,03,31,17,25,9.60
2015,03,31,17,26,9.60
2015,03,31,17,27,9.50
2015,03,31,17,28,9.50
2015,03,31,17,29,9.50
2015,03,31,17,30,9.50
2015,03,31,17,31,9.40
2015,03,31,17,32,9.40
2015,03,31,17,33,9.40
2015,03,31,17,34,9.40
2015,03,31,17,35,9.40
2015,03,31,17,36,9.30
2015,03,31,17,37,9.30
2015,03,31,17,38,9.30
2015,03,31,17,39,9.30
2015,03,31,17,40,9.30
2015,03,31,17,41,9.30
2015,03,31,17,42,9.30
2015,03,31,17,43,9.20
2015,03,31,17,44,9.20
2015,03,31,17,45,9.20
2015,03,31,17,46,9.20
2015,03,31,17,47,9.20